WetterOnline ( http://www.wetteronline.ch )

Wetter aktuell Leutkirch

Aktuelles Wetter: Leutkirch-Herlazhofen (671m)

6-stündlich | Neueste Meldungen
Ortszeit Temperatur Wetter
Sa, 23.06. 8:00 10.8° C leicht bewölkt
Sa, 23.06. 2:00 7.3° C bewölkt
Fr, 22.06. 20:00 13.6° C bedeckt
Fr, 22.06. 14:00 14.9° C bewölkt
Fr, 22.06. 8:00 8.9° C bewölkt
Fr, 22.06. 2:00 13.2° C bewölkt
Do, 21.06. 20:00 21.2° C bewölkt
Do, 21.06. 14:00 24.0° C wolkig
Ortszeit Temperatur Wetter
Sa, 23.06. 12:00 15.0° C wolkig
Sa, 23.06. 11:50 15.0° C wolkig
Sa, 23.06. 11:40 14.6° C wolkig
Sa, 23.06. 11:30 14.0° C wolkenlos
Sa, 23.06. 11:20 14.0° C wolkenlos
Sa, 23.06. 11:10 14.7° C fast wolkenlos
Sa, 23.06. 11:00 13.1° C leicht bewölkt
Sa, 23.06. 10:30 13.4° C wolkenlos
Sa, 23.06. 10:00 12.4° C leicht bewölkt
Sa, 23.06. 9:30 12.2° C wolkenlos
Sa, 23.06. 9:00 11.7° C leicht bewölkt
Ortszeit Relative Feuchte Sichtweite
Sa, 23.06. 8:00 75% 29 km
Sa, 23.06. 2:00 95% 25 km
Fr, 22.06. 20:00 50% 70 km
Fr, 22.06. 14:00 48% 35 km
Fr, 22.06. 8:00 69% 50 km
Fr, 22.06. 2:00 56% 70 km
Do, 21.06. 20:00 58% 60 km
Do, 21.06. 14:00 59% 35 km
Ortszeit Relative Feuchte Sichtweite
Sa, 23.06. 12:00 54% 30 km
Sa, 23.06. 11:50 54% -
Sa, 23.06. 11:40 51% -
Sa, 23.06. 11:30 51% 28 km
Sa, 23.06. 11:20 51% -
Sa, 23.06. 11:10 53% -
Sa, 23.06. 11:00 55% 55 km
Sa, 23.06. 10:30 55% 23 km
Sa, 23.06. 10:00 63% 40 km
Sa, 23.06. 9:30 64% 30 km
Sa, 23.06. 9:00 65% 35 km
Ortszeit Niederschlagsmenge Niederschlagsart
Sa, 23.06. 8:00 0.0 l/m2 in 12 Std. -
Sa, 23.06. 2:00 0.0 l/m2 in 6 Std. -
Fr, 22.06. 20:00 0.0 l/m2 in 12 Std. -
Fr, 22.06. 14:00 0.0 l/m2 in 6 Std. -
Fr, 22.06. 8:00 0.1 l/m2 in 12 Std. -
Fr, 22.06. 2:00 0.1 l/m2 in 6 Std. Regen
Do, 21.06. 20:00 0.2 l/m2 in 12 Std. Regen
Do, 21.06. 14:00 0.0 l/m2 in 6 Std. -
Ortszeit Niederschlagsmenge Niederschlagsart
Sa, 23.06. 12:00 0.0 l/m2 in 1 Std. -
Sa, 23.06. 11:50 keine Meldung -
Sa, 23.06. 11:40 keine Meldung -
Sa, 23.06. 11:30 0.0 l/m2 in 1 Std. -
Sa, 23.06. 11:20 keine Meldung -
Sa, 23.06. 11:10 keine Meldung -
Sa, 23.06. 11:00 0.0 l/m2 in 1 Std. -
Sa, 23.06. 10:30 0.0 l/m2 in 1 Std. -
Sa, 23.06. 10:00 0.0 l/m2 in 1 Std. -
Sa, 23.06. 9:30 0.0 l/m2 in 1 Std. -
Sa, 23.06. 9:00 0.0 l/m2 in 1 Std. -
Ortszeit Stärke Spitze Richtung
km/h Bft. km/h Grad Sektor
Sa, 23.06. 8:00 6 1 7 20° N
Sa, 23.06. 2:00 0 0 14 - -
Fr, 22.06. 20:00 7 2 32 310° NW
Fr, 22.06. 14:00 17 3 37 280° W
Fr, 22.06. 8:00 7 2 25 10° N
Fr, 22.06. 2:00 9 2 30 330° NW
Do, 21.06. 20:00 14 3 36 320° NW
Do, 21.06. 14:00 22 4 41 240° SW
Ortszeit Stärke Spitze Richtung
km/h Bft. km/h Grad Sektor
Sa, 23.06. 12:00 9 2 20 300° NW
Sa, 23.06. 11:50 9 2 - 300° NW
Sa, 23.06. 11:40 9 2 - 320° NW
Sa, 23.06. 11:30 9 2 17 350° N
Sa, 23.06. 11:20 9 2 - 350° N
Sa, 23.06. 11:10 6 1 - 100° O
Sa, 23.06. 11:00 7 2 18 320° NW
Sa, 23.06. 10:30 6 1 15 50° NO
Sa, 23.06. 10:00 7 2 15 50° NO
Sa, 23.06. 9:30 9 2 15 40° NO
Sa, 23.06. 9:00 9 2 17 50° NO
Ortszeit Untergrenze Bedeckung Gattung
total tief tief mittel hoch
Sa, 23.06. 8:00 1500 m 2/8 1/8 - - -
Sa, 23.06. 2:00 2100 m 7/8 7/8 - - -
Fr, 22.06. 20:00 1800 m 8/8 8/8 - - -
Fr, 22.06. 14:00 1500 m 7/8 7/8 - - -
Fr, 22.06. 8:00 1320 m 7/8 7/8 - - -
Fr, 22.06. 2:00 1380 m 7/8 7/8 - - -
Do, 21.06. 20:00 1800 m 7/8 7/8 - - -
Do, 21.06. 14:00 1350 m 7/8 2/8 - - -
Ortszeit Bedeckungsgrad in Achtel und Wolkenuntergrenze
Sa, 23.06. 12:00 3(1380m) 7(3900m) 7(4500m)
Sa, 23.06. 11:50 3(1380m) 7(3900m) 7(4500m)
Sa, 23.06. 11:40 4(1380m) 6(4500m)
Sa, 23.06. 11:30 1(1320m) 3(4200m)
Sa, 23.06. 11:20 keine Wolken
Sa, 23.06. 11:10 1(1050m)
Sa, 23.06. 11:00 3(990m)
Sa, 23.06. 10:30 1(930m)
Sa, 23.06. 10:00 2(840m)
Sa, 23.06. 9:30 keine Wolken
Sa, 23.06. 9:00 4(6300m) 4(7200m)
Ortszeit Luftdruck NN (hPa) Tendenz (hPa in 3 Std.)
Sa, 23.06. 8:00 1026 + 0,3
Sa, 23.06. 2:00 1027 - 0,2
Fr, 22.06. 20:00 1025 + 0,6
Fr, 22.06. 14:00 1023 + 0,1
Fr, 22.06. 8:00 1025 + 0,4
Fr, 22.06. 2:00 1022 + 2,3
Do, 21.06. 20:00 1015 + 0,5
Do, 21.06. 14:00 1014 - 0,8
Ortszeit Luftdruck NN (hPa) Tendenz (hPa in 3 Std.)
Sa, 23.06. 12:00 1024 - 0,6
Sa, 23.06. 11:50 1024 keine Meldung
Sa, 23.06. 11:40 1024 keine Meldung
Sa, 23.06. 11:30 1025 - 0,5
Sa, 23.06. 11:20 1025 keine Meldung
Sa, 23.06. 11:10 1024 keine Meldung
Sa, 23.06. 11:00 1025 - 0,3
Sa, 23.06. 10:30 1025 - 0,2
Sa, 23.06. 10:00 1025 - 0,1
Sa, 23.06. 9:30 1025 + 0,1
Sa, 23.06. 9:00 1026 + 0,3
Ortszeit Schneehöhe (cm)
Sa, 23.06. 8:00 -
Sa, 23.06. 2:00 -
Fr, 22.06. 20:00 -
Fr, 22.06. 14:00 -
Fr, 22.06. 8:00 -
Fr, 22.06. 2:00 -
Do, 21.06. 20:00 -
Do, 21.06. 14:00 -
Ortszeit Schneehöhe (cm)
Sa, 23.06. 12:00 -
Sa, 23.06. 11:50 -
Sa, 23.06. 11:40 -
Sa, 23.06. 11:30 -
Sa, 23.06. 11:20 -
Sa, 23.06. 11:10 -
Sa, 23.06. 11:00 -
Sa, 23.06. 10:30 -
Sa, 23.06. 10:00 -
Sa, 23.06. 9:30 -
Sa, 23.06. 9:00 -
Link zu dieser Seite / Seite empfehlen

Das Wetter in ...